SCP
0 0 0 0 0 0 0 0 0 0 0 0 0 0 0 0 0 0 0 0 0 0 0 0 0 0 0 0 0 0 0 0
0 0 0 0 0 0 0 0 0 0 0 0 0 0 0 0 0 0 0 0 0 0 0 0 0 0 0 0 0 0 0 0
0 0 0 0 0 0 0 0 0 0 0 0 0 0 0 0 0 0 0 0 0 0 0 0 0 0 0 0 0 0 0 0
0 0 0 0 0 0 0 0 0 0 0 0 0 0 0 0 0 0 0 0 0 0 0 0 0 0 0 0 0 0 0 0
0 0 0 0 0 0 0 0 0 0 0 0 0 0 0 0 0 0 0 0 0 0 0 0 0 0 0 0 0 0 0 0
0 0 0 0 0 0 0 0 0 0 0 0 0 0 0 0 0 0 0 0 0 0 0 0 0 0 0 0 0 0 0 0
0 0 0 0 0 0 0 0 0 0 0 0 0 0 0 0 0 0 0 0 0 0 0 0 0 0 0 0 0 0 0 0
0 0 0 0 0 0 0 0 0 0 0 0 0 0 0 0 0 0 0 0 0 0 0 0 0 0 0 0 0 0 0 0
0 0 0 0 0 0 0 0 0 0 0 0 0 0 0 0 0 0 0 0 0 0 0 0 0 0 0 0 0 0 0 0
0 0 0 0 0 0 0 0 0 0 0 0 0 0 0 0 0 0 0 0 0 0 0 0 0 0 0 0 0 0 0 0
0 0 0 0 0 0 0 0 0 0 0 0 0 0 0 0 0 0 0 0 0 0 0 0 0 0 0 0 0 0 0 0
0 0 0 0 0 0 0 0 0 0 0 0 0 0 0 0 0 0 0 0 0 0 0 0 0 0 0 0 0 0 0 0
0 0 0 0 0 0 0 0 0 0 0 0 0 0 0 0 0 0 0 0 0 0 0 0 0 0 0 0 0 0 0 0
0 0 0 0 0 0 0 0 0 0 0 0 0 0 0 0 0 0 0 0 0 0 0 0 0 0 0 0 0 0 0 0
0 0 0 0 0 0 0 0 0 0 0 0 0 0 0 0 0 0 0 0 0 0 0 0 0 0 0 0 0 0 0 0
0 0 0 0 0 0 0 0 0 0 0 0 0 0 0 0 0 0 0 0 0 0 0 0 0 0 0 0 0 0 0 0
0 0 0 0 0 0 0 0 0 0 0 0 0 0 0 0 0 0 0 0 0 0 0 0 0 0 0 0 0 0 0 0
0 0 0 0 0 0 0 0 0 0 0 0 0 0 0 0 0 0 0 0 0 0 0 0 0 0 0 0 0 0 0 0
0 0 0 0 0 0 0 0 0 0 0 0 0 0 0 0 0 0 0 0 0 0 0 0 0 0 0 0 0 0 0 0
Wind_Speed_500mb
43 41 37 33 29 26 23 20 18 14 12 13 12 11 10 7 4 5 7 9 12 13 16 19 19 20 23 28 30 30 27 39
41 40 37 35 32 29 25 21 17 15 13 13 12 11 9 4 2 5 7 10 12 13 15 17 17 19 23 27 27 28 27 40
44 42 38 35 31 28 24 20 19 17 15 17 17 14 10 3 3 5 7 9 10 13 16 18 20 17 23 25 27 27 22 37
42 42 38 33 30 26 24 22 20 20 19 13 12 7 2 6 5 6 9 12 14 16 16 16 16 16 19 22 24 26 25 27
42 41 39 34 31 27 25 22 20 20 20 15 14 9 9 9 3 5 8 8 9 10 10 12 13 14 15 18 20 20 21 23
45 44 41 35 32 28 25 23 20 22 24 20 17 16 15 8 7 4 4 7 8 8 8 8 11 12 13 16 16 19 20 20
39 40 39 38 31 30 28 23 21 20 20 17 17 15 13 9 7 4 3 3 7 6 8 10 10 11 13 13 14 19 23 24
38 43 43 42 37 32 28 26 22 20 18 17 17 16 15 11 10 9 6 4 2 5 6 8 10 12 13 14 16 20 23 24
38 43 46 42 40 35 31 28 24 21 20 21 20 16 13 12 12 9 6 5 3 4 6 9 11 11 13 15 17 18 19 19
35 41 45 44 42 37 35 32 29 25 24 23 21 19 16 15 12 11 9 8 5 6 7 8 9 10 14 16 17 19 19 20
34 42 44 43 41 39 36 33 32 29 26 24 21 21 18 16 15 14 12 9 8 7 6 6 8 11 13 14 15 20 21 22
35 40 45 43 46 41 37 36 39 33 29 26 24 22 21 18 17 15 14 12 9 8 7 8 9 11 13 15 19 20 21 22
43 40 42 49 47 44 42 39 43 37 33 30 28 28 24 22 20 18 17 15 14 12 11 10 11 13 14 19 20 21 22 24
42 44 50 57 50 50 46 43 44 44 40 37 33 30 24 22 20 18 20 18 16 15 14 14 14 16 18 19 20 22 24 26
38 51 50 67 58 52 49 53 46 45 44 43 34 28 26 24 23 21 20 19 18 18 17 16 16 19 20 21 21 22 24 26
44 51 57 61 75 55 53 49 49 47 44 42 41 32 29 28 26 24 22 20 20 19 17 16 17 15 16 21 20 19 22 23
44 51 50 55 64 65 58 54 53 50 45 41 42 36 29 27 26 25 22 20 20 18 16 15 15 15 15 13 20 18 20 19
34 38 47 52 54 63 60 55 54 51 47 44 43 38 33 32 29 28 27 25 23 21 18 15 11 14 12 14 22 13 14 16
29 29 38 48 49 56 57 54 54 53 51 46 43 41 36 34 32 31 29 26 25 22 20 17 13 13 12 14 19 12 12 12
Wind_Direction_500mb
182 178 174 171 167 159 163 161 164 154 139 131 128 125 120 116 88 38 8 358 356 355 345 347 355 351 350 352 357 0 357 351
184 180 177 173 169 162 162 166 159 135 132 133 129 126 120 100 18 351 344 341 337 338 341 347 360 353 352 352 360 4 3 356
183 183 182 179 172 166 163 164 158 153 151 153 151 150 156 169 302 309 321 326 337 346 356 355 357 3 351 357 1 9 12 7
187 189 188 183 178 169 164 164 162 156 180 172 172 169 129 77 48 347 339 335 342 350 347 346 355 2 358 1 3 5 18 12
194 194 191 189 182 171 163 159 162 167 150 166 156 161 162 174 168 266 299 318 332 334 338 349 355 1 3 9 5 15 21 17
194 194 193 189 184 170 163 157 170 180 183 173 162 165 173 163 210 263 310 341 347 346 357 10 20 17 20 22 19 28 30 28
192 193 191 187 181 173 176 177 184 191 188 179 177 187 178 165 150 111 76 36 352 360 25 31 35 33 39 32 33 27 37 30
191 189 189 188 187 177 168 168 179 186 186 191 182 180 178 169 139 148 126 90 43 13 47 53 45 42 40 45 39 38 34 34
195 192 189 191 188 182 175 169 169 175 181 176 171 166 158 158 158 144 149 153 157 94 61 55 50 49 50 53 45 46 44 40
198 193 191 190 189 187 179 172 171 170 176 177 174 175 163 172 173 156 153 142 103 100 83 68 60 59 64 58 57 57 52 47
195 191 191 191 190 188 181 176 178 178 185 181 172 176 174 171 160 159 158 148 137 118 106 92 83 74 79 92 73 63 67 56
197 193 191 190 189 189 182 180 185 188 186 174 174 171 170 161 155 155 163 165 156 155 144 124 117 108 97 87 82 80 67 64
196 196 194 194 192 189 187 188 195 199 189 184 180 185 166 170 177 180 184 186 181 167 152 143 124 117 104 96 84 76 69 64
204 196 199 200 194 194 190 193 198 199 195 194 194 191 195 202 199 197 194 192 180 167 156 141 130 114 99 91 84 76 67 60
206 205 206 208 198 196 192 202 200 194 199 196 197 192 199 202 195 190 185 176 169 163 150 141 128 111 102 87 76 71 64 57
231 206 206 220 209 199 195 196 195 188 193 191 192 192 197 194 184 178 175 168 165 158 153 145 129 120 104 85 69 63 58 50
251 221 204 214 208 202 196 194 189 186 182 185 182 181 176 178 175 165 164 167 159 146 144 135 128 120 108 97 88 54 59 60
245 237 218 209 206 200 198 193 186 184 180 179 176 179 176 177 172 168 170 165 162 159 149 137 138 133 121 112 107 89 75 62
248 236 214 203 199 195 194 189 186 183 179 179 178 176 178 175 172 171 168 168 165 159 153 148 160 152 138 125 109 98 79 73
Wind_Speed_850mb
43 41 37 33 29 26 23 20 18 14 12 13 12 11 10 7 4 5 7 9 12 13 16 19 19 20 23 28 30 30 27 39
41 40 37 35 32 29 25 21 17 15 13 13 12 11 9 4 2 5 7 10 12 13 15 17 17 19 23 27 27 28 27 40
44 42 38 35 31 28 24 20 19 17 15 17 17 14 10 3 3 5 7 9 10 13 16 18 20 17 23 25 27 27 22 37
42 42 38 33 30 26 24 22 20 20 19 13 12 7 2 6 5 6 9 12 14 16 16 16 16 16 19 22 24 26 25 27
42 41 39 34 31 27 25 22 20 20 20 15 14 9 9 9 3 5 8 8 9 10 10 12 13 14 15 18 20 20 21 23
45 44 41 35 32 28 25 23 20 22 24 20 17 16 15 8 7 4 4 7 8 8 8 8 11 12 13 16 16 19 20 20
39 40 39 38 31 30 28 23 21 20 20 17 17 15 13 9 7 4 3 3 7 6 8 10 10 11 13 13 14 19 23 24
38 43 43 42 37 32 28 26 22 20 18 17 17 16 15 11 10 9 6 4 2 5 6 8 10 12 13 14 16 20 23 24
38 43 46 42 40 35 31 28 24 21 20 21 20 16 13 12 12 9 6 5 3 4 6 9 11 11 13 15 17 18 19 19
35 41 45 44 42 37 35 32 29 25 24 23 21 19 16 15 12 11 9 8 5 6 7 8 9 10 14 16 17 19 19 20
34 42 44 43 41 39 36 33 32 29 26 24 21 21 18 16 15 14 12 9 8 7 6 6 8 11 13 14 15 20 21 22
35 40 45 43 46 41 37 36 39 33 29 26 24 22 21 18 17 15 14 12 9 8 7 8 9 11 13 15 19 20 21 22
43 40 42 49 47 44 42 39 43 37 33 30 28 28 24 22 20 18 17 15 14 12 11 10 11 13 14 19 20 21 22 24
42 44 50 57 50 50 46 43 44 44 40 37 33 30 24 22 20 18 20 18 16 15 14 14 14 16 18 19 20 22 24 26
38 51 50 67 58 52 49 53 46 45 44 43 34 28 26 24 23 21 20 19 18 18 17 16 16 19 20 21 21 22 24 26
44 51 57 61 75 55 53 49 49 47 44 42 41 32 29 28 26 24 22 20 20 19 17 16 17 15 16 21 20 19 22 23
44 51 50 55 64 65 58 54 53 50 45 41 42 36 29 27 26 25 22 20 20 18 16 15 15 15 15 13 20 18 20 19
34 38 47 52 54 63 60 55 54 51 47 44 43 38 33 32 29 28 27 25 23 21 18 15 11 14 12 14 22 13 14 16
29 29 38 48 49 56 57 54 54 53 51 46 43 41 36 34 32 31 29 26 25 22 20 17 13 13 12 14 19 12 12 12
Wind_Direction_850mb
182 178 174 171 167 159 163 161 164 154 139 131 128 125 120 116 88 38 8 358 356 355 345 347 355 351 350 352 357 0 357 351
184 180 177 173 169 162 162 166 159 135 132 133 129 126 120 100 18 351 344 341 337 338 341 347 360 353 352 352 360 4 3 356
183 183 182 179 172 166 163 164 158 153 151 153 151 150 156 169 302 309 321 326 337 346 356 355 357 3 351 357 1 9 12 7
187 189 188 183 178 169 164 164 162 156 180 172 172 169 129 77 48 347 339 335 342 350 347 346 355 2 358 1 3 5 18 12
194 194 191 189 182 171 163 159 162 167 150 166 156 161 162 174 168 266 299 318 332 334 338 349 355 1 3 9 5 15 21 17
194 194 193 189 184 170 163 157 170 180 183 173 162 165 173 163 210 263 310 341 347 346 357 10 20 17 20 22 19 28 30 28
192 193 191 187 181 173 176 177 184 191 188 179 177 187 178 165 150 111 76 36 352 360 25 31 35 33 39 32 33 27 37 30
191 189 189 188 187 177 168 168 179 186 186 191 182 180 178 169 139 148 126 90 43 13 47 53 45 42 40 45 39 38 34 34
195 192 189 191 188 182 175 169 169 175 181 176 171 166 158 158 158 144 149 153 157 94 61 55 50 49 50 53 45 46 44 40
198 193 191 190 189 187 179 172 171 170 176 177 174 175 163 172 173 156 153 142 103 100 83 68 60 59 64 58 57 57 52 47
195 191 191 191 190 188 181 176 178 178 185 181 172 176 174 171 160 159 158 148 137 118 106 92 83 74 79 92 73 63 67 56
197 193 191 190 189 189 182 180 185 188 186 174 174 171 170 161 155 155 163 165 156 155 144 124 117 108 97 87 82 80 67 64
196 196 194 194 192 189 187 188 195 199 189 184 180 185 166 170 177 180 184 186 181 167 152 143 124 117 104 96 84 76 69 64
204 196 199 200 194 194 190 193 198 199 195 194 194 191 195 202 199 197 194 192 180 167 156 141 130 114 99 91 84 76 67 60
206 205 206 208 198 196 192 202 200 194 199 196 197 192 199 202 195 190 185 176 169 163 150 141 128 111 102 87 76 71 64 57
231 206 206 220 209 199 195 196 195 188 193 191 192 192 197 194 184 178 175 168 165 158 153 145 129 120 104 85 69 63 58 50
251 221 204 214 208 202 196 194 189 186 182 185 182 181 176 178 175 165 164 167 159 146 144 135 128 120 108 97 88 54 59 60
245 237 218 209 206 200 198 193 186 184 180 179 176 179 176 177 172 168 170 165 162 159 149 137 138 133 121 112 107 89 75 62
248 236 214 203 199 195 194 189 186 183 179 179 178 176 178 175 172 171 168 168 165 159 153 148 160 152 138 125 109 98 79 73